Location: Eaton Estates
(41.3089°N, 82.0057°W)
Time: 09:05:28
(UTC+00:00)

NOAA 18 - Pass Details

Date: 11 April 2023
Orbit: 838 x 860 km, 98.9° (Epoch: 03 June)

Event Time Altitude Azimuth Distance (km) Brightness Sun altitude
Exits shadow 03:44:51 42° 318° (NW) 1,206 6.3 -35.0°
Drops below altitude 10° 03:48:39 10° 339° (NNW) 2,503 8.4 -35.4°
Sets 03:51:05 0° 343° (NNW) 3,442 9.3 -35.6°
